| time (UTC) | temp F | wind direction | speed MPH | gust MPH | rain 1hr in | rain 24hr in | rain mn in | humidity % | barometer mb |
| 20260505233011 | 72 | 203 | 0.0 | 1.0 | 0.00 | 0.00 | 0.00 | 69 | 1011.7 |
| 20260505232512 | 72 | 210 | 1.0 | 2.0 | 0.00 | 0.00 | 0.00 | 69 | 1011.7 |
| 20260505232214 | 72 | 230 | 0.0 | 1.0 | 0.00 | 0.00 | 0.00 | 69 | 1011.7 |
| 20260505232011 | 72 | 186 | 2.0 | 4.0 | 0.00 | 0.00 | 0.00 | 69 | 1011.7 |
| 20260505231510 | 72 | 219 | 1.0 | 3.0 | 0.00 | 0.00 | 0.00 | 69 | 1011.7 |
| 20260505231214 | 72 | 205 | 2.0 | 2.0 | 0.00 | 0.00 | 0.00 | 69 | 1011.4 |
| 20260505231011 | 72 | 193 | 2.0 | 2.0 | 0.00 | 0.00 | 0.00 | 69 | 1011.4 |
| 20260505230512 | 72 | 217 | 2.0 | 2.0 | 0.00 | 0.00 | 0.00 | 68 | 1011.4 |
| 20260505230216 | 72 | 203 | 0.0 | 3.0 | 0.00 | 0.00 | 0.00 | 68 | 1011.4 |
| 20260505230012 | 72 | 199 | 2.0 | 4.0 | 0.00 | 0.00 | 0.00 | 68 | 1011.4 |
| 20260505225511 | 72 | 229 | 1.0 | 2.0 | 0.00 | 0.00 | 0.00 | 67 | 1011.6 |
| 20260505225215 | 72 | 219 | 1.0 | 2.0 | 0.00 | 0.00 | 0.00 | 69 | 1011.6 |
| 20260505225011 | 72 | 241 | 0.0 | 3.0 | 0.00 | 0.00 | 0.00 | 69 | 1011.6 |
| 20260505224512 | 72 | 215 | 0.0 | 1.0 | 0.00 | 0.00 | 0.00 | 68 | 1011.6 |
| 20260505224213 | 72 | 137 | 1.0 | 5.0 | 0.00 | 0.00 | 0.00 | 68 | 1011.6 |
| 20260505224012 | 72 | 243 | 2.0 | 2.0 | 0.00 | 0.00 | 0.00 | 68 | 1011.6 |
| 20260505223510 | 72 | 224 | 3.0 | 3.0 | 0.00 | 0.00 | 0.00 | 68 | 1011.6 |
| 20260505223215 | 72 | 216 | 1.0 | 3.0 | 0.00 | 0.00 | 0.00 | 69 | 1011.6 |
| 20260505223011 | 72 | 208 | 1.0 | 1.0 | 0.00 | 0.00 | 0.00 | 69 | 1011.6 |
| 20260505222512 | 72 | 246 | 1.0 | 4.0 | 0.00 | 0.00 | 0.00 | 69 | 1011.6 |
| 20260505222214 | 72 | 195 | 0.0 | 1.0 | 0.00 | 0.00 | 0.00 | 69 | 1011.6 |
| 20260505222011 | 72 | 200 | 0.0 | 0.0 | 0.00 | 0.00 | 0.00 | 69 | 1011.6 |
| 20260505221510 | 72 | 216 | 3.0 | 3.0 | 0.00 | 0.00 | 0.00 | 68 | 1011.6 |
| 20260505221215 | 72 | 227 | 2.0 | 5.0 | 0.00 | 0.00 | 0.00 | 68 | 1011.6 |
| 20260505221012 | 72 | 227 | 3.0 | 5.0 | 0.00 | 0.00 | 0.00 | 69 | 1011.6 |
| 20260505220512 | 72 | 155 | 0.0 | 2.0 | 0.00 | 0.00 | 0.00 | 68 | 1011.6 |
| 20260505220213 | 72 | 179 | 1.0 | 4.0 | 0.00 | 0.00 | 0.00 | 67 | 1011.6 |
| 20260505220010 | 72 | 205 | 0.0 | 2.0 | 0.00 | 0.00 | 0.00 | 68 | 1011.6 |
| 20260505215511 | 72 | 188 | 0.0 | 3.0 | 0.00 | 0.00 | 0.00 | 68 | 1011.7 |
| 20260505215214 | 72 | 216 | 0.0 | 3.0 | 0.00 | 0.00 | 0.00 | 68 | 1011.7 |
| 20260505215011 | 72 | 232 | 1.0 | 4.0 | 0.00 | 0.00 | 0.00 | 68 | 1011.7 |
| 20260505214512 | 72 | 192 | 2.0 | 4.0 | 0.00 | 0.00 | 0.00 | 67 | 1011.7 |
| 20260505214214 | 72 | 199 | 3.0 | 6.0 | 0.00 | 0.00 | 0.00 | 66 | 1011.8 |
| 20260505214010 | 72 | 244 | 1.0 | 3.0 | 0.00 | 0.00 | 0.00 | 66 | 1011.8 |
| 20260505213510 | 72 | 236 | 2.0 | 5.0 | 0.00 | 0.00 | 0.00 | 66 | 1011.8 |
| 20260505213214 | 72 | 230 | 1.0 | 4.0 | 0.00 | 0.00 | 0.00 | 66 | 1011.8 |
| 20260505213011 | 72 | 205 | 2.0 | 6.0 | 0.00 | 0.00 | 0.00 | 66 | 1011.8 |
| 20260505212512 | 73 | 184 | 4.0 | 5.0 | 0.00 | 0.00 | 0.00 | 67 | 1011.8 |
| 20260505212214 | 72 | 223 | 2.0 | 3.0 | 0.00 | 0.00 | 0.00 | 66 | 1011.8 |
| 20260505212011 | 72 | 200 | 1.0 | 3.0 | 0.00 | 0.00 | 0.00 | 66 | 1011.8 |
| 20260505211510 | 73 | 226 | 2.0 | 3.0 | 0.00 | 0.00 | 0.00 | 66 | 1011.8 |
| 20260505211215 | 73 | 192 | 0.0 | 1.0 | 0.00 | 0.00 | 0.00 | 66 | 1011.9 |
| 20260505211011 | 73 | 174 | 0.0 | 0.0 | 0.00 | 0.00 | 0.00 | 65 | 1011.9 |
| 20260505210510 | 73 | 277 | 5.0 | 5.0 | 0.00 | 0.00 | 0.00 | 67 | 1011.9 |
| 20260505210214 | 73 | 200 | 0.0 | 1.0 | 0.00 | 0.00 | 0.00 | 65 | 1011.9 |
| 20260505210010 | 73 | 185 | 3.0 | 5.0 | 0.00 | 0.00 | 0.00 | 66 | 1011.9 |
| 20260505205511 | 73 | 258 | 1.0 | 3.0 | 0.00 | 0.00 | 0.00 | 65 | 1012.0 |
| 20260505205213 | 72 | 223 | 3.0 | 5.0 | 0.00 | 0.00 | 0.00 | 65 | 1012.0 |
| 20260505205012 | 72 | 158 | 1.0 | 6.0 | 0.00 | 0.00 | 0.00 | 65 | 1012.0 |